小惑星A/2019 G2

A/2019 G2

English version
Home page
Updated on July 8, 2020

---------------------------------------------------------------------

・ プロフィール

発見日 2019年4月2日
発見光度 21.3等
発見者 Pan-STARRS 1 telescope (Haleakala)

・ 写真集

・ 軌道要素

Epoch 2019 Dec. 23.0 TT = JDT 2458840.5
T 2019 Dec. 10.06160 TT                                 Rudenko
q   2.2913585            (2000.0)            P               Q
z  +0.0013953      Peri.   82.65263     -0.55012818     +0.81812717
 +/-0.0000021      Node   208.14429     +0.55475943     +0.50788587
e   0.9968029      Incl.  159.21160     +0.62418023     +0.26966624
H   16.5
From 85 observations 2019 Apr. 2-2020 Feb. 21, mean residual 0".5.

・ 光度変化

        H = 16.0  G = 0.15

---------------------------------------------------------------------

軌道要素はM.P.E.C. 2020-F67に掲載されたものです。
光度グラフはComet for Windowsで作成したものです。

---------------------------------------------------------------------

Copyright(C) Seiichi Yoshida (comet@aerith.net). All rights reserved.